Current Version              Previous Version:    01  02  03  04  05  06  07  08  09  10  11  12  13  14  15  16  17  18  19  20  21  22  23  24  25  26  27  28  29  30  
   31  32  33  34  35  36  37  38  39  40  41  42  43  44  45  46  47  48  49  50  51  52  53  54  55  56  57  58  59  60  

[Printable]
083
ASUS44 KLUB 012310
RWRTX
WEST TEXAS WEATHER ROUNDUP
NATIONAL WEATHER SERVICE LUBBOCK TX
600 PM CDT MON SEP 01 2014

NOTE: "FAIR" INDICATES FEW OR NO CLOUDS BELOW 12,000 FEET WITH NO
SIGNIFICANT WEATHER AND/OR OBSTRUCTIONS TO VISIBILITY.

TXZ004-006>008-010-012-014-016-OKZ002-020000-
TEXAS PANHANDLE/OKLAHOMA PANHANDLE

CITY           SKY/WX    TMP DP  RH WIND       PRES   REMARKS
AMARILLO       SUNNY     93  56  28 SE6       29.90F
BORGER         SUNNY     91  59  33 VRB5      29.87F
CANADIAN       SUNNY     88  68  51 NW6       29.83F
DALHART        SUNNY     87  54  32 E8        29.95S
DUMAS          SUNNY     91  59  34 CALM      29.92S
GUYMON         SUNNY     88  61  40 SE7       29.88S
HEREFORD       SUNNY     97  50  20 NW3       29.91S
PAMPA          SUNNY     88  59  38 NE7       29.90S
PERRYTON       SUNNY     84  64  49 NE6       29.89S
$$

TXZ026-029-035-045-048-020000-
SOUTHERN PANHANDLE/SOUTH PLAINS/ROLLING PLAINS

CITY           SKY/WX    TMP DP  RH WIND       PRES   REMARKS
CHILDRESS      SUNNY     99  66  33 S13       29.78S HX 103
SEMINOLE       SUNNY    102  40  11 S8G17     29.86F HX  97
LUBBOCK        MOSUNNY  102  45  14 S14       29.84F HX  98
PLAINVIEW      MOSUNNY   98  54  22 CALM      29.85S HX  95
SNYDER         SUNNY    100  60  27 S17       29.82F HX 100
$$

TXZ052-054-060>062-072-078-127-140-154-169-020000-
PERMIAN BASIN/CONCHO VALLEY/BIG COUNTRY/EDWARDS PLATEAU

CITY           SKY/WX    TMP DP  RH WIND       PRES   REMARKS
ABILENE        SUNNY    100  56  23 S16       29.82S HX  99
BIG SPRING     SUNNY    102  54  20 SE9       29.85S HX 100
BRADY          SUNNY     97  63  32 SE13      29.86S HX  98
BROWNWOOD      SUNNY     97  59  28 S12       29.83F HX  96
JUNCTION       SUNNY     96  61  31 S16       29.86S HX  96
MIDLAND        MOSUNNY  102  53  19 S9        29.83F HX 100
ODESSA         SUNNY    102  43  13 S12       29.85F HX  97
SAN ANGELO     SUNNY     99  62  29 S15G21    29.83S HX 100
SONORA         SUNNY     95  63  34 S14G20    29.91S HX  96
SWEETWATER     SUNNY     99  59  26 SE16G23   29.86S HX  98
WINK           SUNNY    104  42  12 S10       29.81F HX  99
$$

TXZ055-058-074-075-080-082-020000-
FAR WEST/SOUTHWEST MOUNTAINS/TRANS PECOS

CITY           SKY/WX    TMP DP  RH WIND       PRES   REMARKS
ALPINE         MOSUNNY   97  47  18 S10       30.03S
DRYDEN           N/A    104  59  22 SE13G21   29.82S HX 104
EL PASO        MOSUNNY   99  37  11 W10G20    29.92F
FORT STOCKTON  MOSUNNY  100  54  21 SE14G22   29.85F HX  98
GUADALUPE PASS SUNNY     94  40  15 SW26      30.06F
MARFA          MOSUNNY   91  43  18 CALM      30.04F
PECOS          SUNNY    104  45  13 NW3       29.79F HX 100
PRESIDIO       FAIR     103  51  17 NW9G18    29.83F HX 100
$$

TXZ014-016-019-021>030-083-020000
TEXAS TECH WEST TEXAS MESONET/TEXAS PANHANDLE/NORTHERN SOUTH PLAINS

CITY           SKY/WX    TMP DP  RH WIND       PRES   REMARKS
ABERNATHY 5ENE   N/A     99  43  14 S8        29.85F HX  95
AMARILLO 9NNE    N/A     93  60  32 E7        29.87F
AMARILLO 7SSE    N/A     94  56  27 E6        29.91S
AMHERST 1NE      N/A     99  38  12 SE1       29.88S
BOOTLEG 11WNW    N/A     95  44  17 SW5       29.95F
CANADIAN 6E      N/A     89  66  45 N5        29.83S
CAPROCK CYN SP   N/A    101  50  17 S12       29.80F HX  98
CHILDRESS 2NNE   N/A    100  64  30 S10       29.77S HX 102
CLARENDON 2WSW   N/A     97  57  26 N3        29.84S HX  96
CLAUDE 12SW      N/A     92  60  33 NE5       29.89S
DIMMITT 2NE      N/A     97  41  14 SW5       29.91S
FLOYDADA 2NNE    N/A     97  47  18 S13       29.85S
FRIONA 2NE       N/A     95  45  17 E2        29.91F
GOODLETT 3W      N/A    102  61  26 S12       29.75S HX 103
HART 3N          N/A     96  51  21 W2        29.90S
HEREFORD 2NW     N/A     95  48  20 SE2       29.90F
MCLEAN 1E        N/A     97  59  27 NE3       29.83S HX  96
MEMPHIS 1NE      N/A     99  63  30 SE9       29.77F HX 100
MULESHOE 2SSW    N/A    100  38  11 W3        29.89S HX  95
OLTON 6S         N/A     97  46  17 NE3       29.87S
PALO DURO SP     N/A     95  57  27 N5        29.90S
PAMPA 2E         N/A     90  62  38 N1        29.89S
PLAINVIEW 1S     N/A     99  52  20 CALM      29.85F HX  96
SILVERTON 7ESE   N/A     97  55  24 S9        29.85S HX  95
TULIA 2ENE       N/A     98  51  20 E2        29.87S HX  95
TURKEY 2WSW      N/A    103  51  17 S10       29.78F HX 100
UMBARGER 3NNE    N/A     94  53  25 E1        29.91F
$$

TXZ033>036-039>041-045>048-020000
TEXAS TECH WEST TEXAS MESONET/SOUTH PLAINS

CITY           SKY/WX    TMP DP  RH WIND       PRES   REMARKS
AIKEN 3WSW       N/A     95  61  31 E1        29.87S HX  95
ANDREWS 2NE      N/A    103  36  10 S5        29.85S HX  97
ANTON 6SSW       N/A    101  42  13 SE3       29.86S HX  96
BROWNFIELD 2S    N/A    101  38  11 S8        29.85F HX  95
DENVR CTY 7WNW   N/A     98  37  12 SE8       29.88F
GAIL 2ESE        N/A    103  52  18 S12       29.80F HX 100
LAMESA 2SE       N/A    102  48  16 S10       29.84S HX  98
LEVELLAND 4S     N/A    101  40  12 E6        29.86S HX  95
LUBBOCK 3WNW     N/A    102  43  13 S5        29.84F HX  97
MORTON 1ENE      N/A     99  38  12 NE2       29.88F
ODONNELL 1N      N/A    101  45  15 S10       29.84F HX  96
PLAINS 3N        N/A    100  38  11 S5        29.89S HX  95
RALLS 1SE        N/A     99  53  21 S9        29.85F HX  96
REESE CENTER     N/A    101  38  11 S10       29.85S HX  96
SEAGRAVES 1SW    N/A    101  37  11 SW5       29.86S HX  96
SEMINOLE 2NNE    N/A    102  38  10 S8        29.85F HX  97
SLATON 2NE       N/A     98  48  18 SW9       29.84S
SNYDER 3E        N/A    101  58  23 S12       29.82S HX 101
SUNDOWN 8SW      N/A    101  37  11 SW8       29.87F HX  95
TAHOKA 3NNE      N/A    103  45  14 SW12      29.84S HX  99
WOLFFORTH 6SSW   N/A    102  40  12 S9        29.85F HX  97
$$

TXZ031-032-036>038-042>044-020000-
TEXAS TECH WEST TEXAS MESONET/ROLLING PLAINS

CITY           SKY/WX    TMP DP  RH WIND       PRES   REMARKS
ASPERMONT 3NE    N/A    102  63  28 S9        29.77S HX 104
FLUVANNA 3WNW    N/A    101  53  20 SE12      29.83S HX  98
GRAHAM 5SSW      N/A     99  51  19 S12       29.83S HX  96
GUTHRIE 10WSW    N/A    101  62  27 S14       29.77F HX 103
HASKELL 1NW      N/A    100  55  22 SE13      29.77S HX  98
JAYTON 1SSE      N/A    102  60  25 S12       29.78S HX 102
KNOX CITY 3NW    N/A    102  58  23 S15       29.76S HX 101
LK A HENRY 1NW   N/A    103  57  21 S12       29.79S HX 102
NORTHFIELD 1S    N/A     99  67  34 SE12      29.76F HX 103
ODELL 4ENE       N/A    101  62  28 S16       29.76S HX 102
PADUCAH 10SW     N/A     99  63  30 S12       29.77F HX 100
POST 1NE         N/A    103  44  13 S7        29.81S HX  99
RRING SPRGS 3N   N/A    100  58  24 SE13      29.81S HX  99
SEYMOUR 3NW      N/A    100  60  26 SE18      29.75F HX 100
SPUR 1W          N/A    100  54  21 S10       29.78F HX  98
WEINERT 2NNE     N/A    101  61  26 S14       29.77S HX 102
WHITE RVR 6NE    N/A    100  52  20 S10       29.81S HX  97
$$

TXZ052-054-060>062-072-078-127-140-154-169-020000-
TEXAS TECH WEST TEXAS MESONET/PERMIAN BASIN/
CONCHO VALLEY/BIG COUNTRY/EDWARDS PLATEAU

CITY           SKY/WX    TMP DP  RH WIND       PRES   REMARKS
JUNCTION 1SSW    N/A     96  63  34 SE10      29.87R HX  97
MERTZON 3NNE     N/A     98  63  32 S16       29.85S HX  99
SAN ANGELO 7NW   N/A     98  57  25 S13       29.83S HX  97
STRLNG CT 4WSW   N/A     99  62  29 S6        29.84S HX 101
ST LAWRNCE 5SW   N/A     99  56  23 SE9       29.85F HX  97
SWEETWATR 11SW   N/A     98  63  31 SE17      29.85S HX 100
WALL 1E          N/A     98  60  28 S8        29.84S HX  97
$$

TXZ055-058-074-075-080-082-020000-
TEXAS TECH WEST TEXAS MESONET/FAR WEST/SOUTHWEST MOUNTAINS/TRANS PECOS

CITY           SKY/WX    TMP DP  RH WIND       PRES   REMARKS
PRSMN GAP BBNP   N/A    102  51  17 E7        29.83F HX  99
GUADLPE MTN NP   N/A     89  38  16 N9        30.08S
$$